Regional Weather Roundup
Issued by NWS

Home | Current Version | Previous Version | Graphics & Text | Print | Product List | Glossary On
Versions: 1 2 3 4 5 6 7 8 9 10 11 12 13 14 15 16 17 18 19 20 21 22 23 24 25 26 27 28 29 30 31 32 33 34 35 36 37 38 39 40 41 42 43 44 45 46 47 48 49 50
000
ASUS43 KBIS 010459
RWRND

NORTH DAKOTA REGIONAL WEATHER ROUNDUP
NATIONAL WEATHER SERVICE BISMARCK ND
1200 AM CDT WED OCT 01 2014

NOTE: "FAIR" INDICATES FEW OR NO CLOUDS BELOW 12,000 FEET WITH NO
SIGNIFICANT WEATHER AND/OR OBSTRUCTIONS TO VISIBILITY.


NDZ001>003-009>011-017-010600-
NORTHWEST NORTH DAKOTA

CITY           SKY/WX    TMP DP  RH WIND       PRES   REMARKS
WILLISTON      CLOUDY    51  49  92 W3        29.49F
MINOT          LGT RAIN  51  50  96 NW8       29.40F
$$

NDZ018>021-031>035-040>046-010600-
SOUTHWEST NORTH DAKOTA

CITY           SKY/WX    TMP DP  RH WIND       PRES   REMARKS
BISMARCK       CLOUDY    54  52  93 W17       29.45R
GARRISON         N/A     51  50  96 NW9       29.41S
HETTINGER ARPT PTCLDY    53  50  89 W14       29.57R
$$

NDZ004>008-012>016-024-026-027-054-010600-
NORTHEAST NORTH DAKOTA

CITY           SKY/WX    TMP DP  RH WIND       PRES   REMARKS
GRAND FORKS    CLOUDY    57  49  74 SE28G33   29.54F
DEVILS LAKE    CLOUDY    57  50  77 SE24G32   29.42F
$$

NDZ022-023-025-028>030-036>039-047>053-010600-
SOUTHEAST NORTH DAKOTA

CITY           SKY/WX    TMP DP  RH WIND       PRES   REMARKS
FARGO          LGT RAIN  61  53  75 SE28G37   29.58F
$$




USA.gov is the U.S. government's official web portal to all federal, state and local government web resources and services.